Regional Weather Roundup
Issued by NWS

Home | Current Version | Previous Version | Graphics & Text | Print | Product List | Glossary On
Versions: 1 2 3 4 5 6 7 8 9 10 11 12 13 14 15 16 17 18 19 20 21 22 23 24 25 26 27 28 29 30 31 32 33 34 35 36 37 38 39 40 41 42 43 44 45 46 47 48 49 50
000
ASUS45 KABQ 301110
RWRNM
NEW MEXICO REGIONAL WEATHER ROUNDUP
NATIONAL WEATHER SERVICE ALBUQUERQUE NM
500 AM MDT SAT JUL 30 2016

NOTE: "FAIR" MEANS FEW OR NO CLOUDS BELOW 12,000 FEET AGL WITH NO
       SIGNIFICANT WEATHER OR OBSTRUCTIONS TO VISION.

      THIS PRODUCT IS RELEASED AS TWO VERSIONS.  ONE VERSION NEAR
      THE TOP OF THE HOUR CONTAINING PRELIMINARY DATA FROM ALBUQUERQUE
      AND OTHER STATIONS.  A FINAL VERSION WITH ADDITIONAL DATA IS
      ISSUED ABOUT 10 MINUTES AFTER THE HOUR.

NMZ501-503-504-510>518-301200-
NORTHWEST PLATEAU/NORTHCENTRAL MOUNTAINS

CITY           SKY/WX    TMP DP  RH WIND       PRES   REMARKS
FARMINGTON     FAIR      68  44  42 SE9       30.10F
LOS ALAMOS     FAIR      63  44  49 S8        30.30S
SANTA FE       FAIR      64  45  49 SE9       30.24S
TAOS           FAIR      50  30  46 N5        30.31S
ANGEL FIRE     FAIR      39  37  94 CALM      30.40S

$$
NMZ402-403-502-505>509-301200-
WESTCENTRAL MOUNTAINS/SOUTHWEST MOUNTAINS

CITY           SKY/WX    TMP DP  RH WIND       PRES   REMARKS
GALLUP         FAIR      62  45  53 CALM      30.20F
GRANTS         FAIR      57  49  75 SE6       30.24S
SILVER CITY    FAIR      68  54  59 E3        30.15S

$$
NMZ407-409-411-412-301200-
SOUTHERN DESERTS

CITY           SKY/WX    TMP DP  RH WIND       PRES   REMARKS
LORDSBURG      FAIR      70  50  49 W7        30.04S
DEMING         FAIR      77  57  50 E10       30.06F
LAS CRUCES     FAIR      73  56  55 E3        30.11S
HOLLOMAN AFB   CLOUDY    77  58  50 S13       30.06F
ALAMOGORDO     FAIR      77  55  47 S9        30.09S
T OR C         FAIR      71  52  50 CALM      30.11S

$$
NMZ519>523-301200-
CENTRAL VALLEYS/CENTRAL HIGHLANDS

CITY           SKY/WX    TMP DP  RH WIND       PRES   REMARKS
ALBUQUERQUE    MOCLDY    67  56  67 N5        30.16F
DOUBLE EAGLE   FAIR      61  50  66 CALM      30.20S
MORIARTY ARPT  FAIR      54  51  87 N6        30.26S
CLINES CORNERS FAIR      57  48  72 E6        30.31S
BELEN          FAIR      64  47  54 NE3       30.15S
SOCORRO        FAIR      67  46  46 W3        30.13F

$$
NMZ524>526-539-540-301200-
SOUTHCENTRAL MOUNTAINS

CITY           SKY/WX    TMP DP  RH WIND       PRES   REMARKS
RUIDOSO          N/A     64  50  59 SE3       30.30S

$$
NMZ527>531-301200-
NORTHEAST HIGHLANDS/NORTHEAST PLAINS

CITY           SKY/WX    TMP DP  RH WIND       PRES   REMARKS
LAS VEGAS      FAIR      55  46  71 CALM      30.28F
RATON          FAIR      55  50  83 N8        30.23F
CLAYTON        FAIR      60  57  89 SW10      30.15S

$$
NMZ532>537-301200-
EASTCENTRAL PLAINS

CITY           SKY/WX    TMP DP  RH WIND       PRES   REMARKS
TUCUMCARI      FAIR      63  60  90 W6        30.11S
CANNON AFB     FAIR      64  63  96 W6        30.13R
CLOVIS AIRPORT FAIR      64  57  77 W6        30.12S

$$
NMZ028-029-538-301200-
SOUTHEAST PLAINS

CITY           SKY/WX    TMP DP  RH WIND       PRES   REMARKS
ROSWELL        FAIR      73  57  57 S5        30.07S
ARTESIA        FAIR      72  59  64 S9        30.07F
CARLSBAD       FAIR      71  57  61 SE6       30.05S
HOBBS          FAIR      70  63  78 CALM      30.11S HAZE


$$



USA.gov is the U.S. government's official web portal to all federal, state and local government web resources and services.